UBG394 OEDF-VGHS

Flight info

Callsign UBG394
Flight time N/A
Altitude 36000
Route EMUSA Q212 GETOT J852 KSA/N0483F370 DCT 21N049E 21N051E/N0475F390 21N053E DCT DAPOL DCT DEMKI M440 TULBU N881 RASKI L639 BPL A791 CEA A462 DAC
Aircraft A333/H-SDE3GHIJ2J3J5M1RVWXY/LB2D1

Departure

Time 2026-05-08 17:43
Airport King Fahd International Airport (OEDF)

Arrival

Time N/A
Airport Hazrat Shahjalal International Airport (VGHS)
Time Latitude Longitude Altitude Speed Heading
2026-05-08 16:47 26.46943 49.79454 94 ft 0 kts 62°
2026-05-08 17:21 26.46937 49.79442 92 ft 2 kts 62°
2026-05-08 17:21 26.46929 49.79426 93 ft 2 kts 62°
2026-05-08 17:22 26.46921 49.79410 92 ft 2 kts 62°
2026-05-08 17:22 26.46916 49.79398 92 ft 0 kts 57°
2026-05-08 17:22 26.46916 49.79395 92 ft 0 kts 37°
2026-05-08 17:22 26.46915 49.79393 92 ft 0 kts 17°
2026-05-08 17:23 26.46913 49.79390 92 ft 0 kts 356°
2026-05-08 17:23 26.46911 49.79389 89 ft 0 kts 336°
2026-05-08 17:28 26.46916 49.79386 92 ft 1 kts 335°
2026-05-08 17:28 26.46926 49.79381 90 ft 2 kts 335°
2026-05-08 17:29 26.46943 49.79373 93 ft 3 kts 336°
2026-05-08 17:29 26.46964 49.79362 93 ft 4 kts 335°
2026-05-08 17:29 26.46991 49.79348 91 ft 5 kts 335°
2026-05-08 17:29 26.47015 49.79331 93 ft 3 kts 319°
2026-05-08 17:30 26.47028 49.79309 92 ft 4 kts 292°
2026-05-08 17:30 26.47027 49.79291 92 ft 1 kts 254°
2026-05-08 17:30 26.47023 49.79276 92 ft 4 kts 254°
2026-05-08 17:30 26.47012 49.79231 93 ft 8 kts 254°
2026-05-08 17:31 26.46992 49.79152 91 ft 13 kts 254°
2026-05-08 17:31 26.46960 49.79073 93 ft 10 kts 220°
2026-05-08 17:31 26.46884 49.79071 91 ft 13 kts 164°
2026-05-08 17:31 26.46787 49.79103 92 ft 15 kts 164°
2026-05-08 17:32 26.46729 49.79121 90 ft 15 kts 164°
2026-05-08 17:32 26.46652 49.79144 91 ft 16 kts 165°
2026-05-08 17:32 26.46556 49.79173 92 ft 16 kts 164°
2026-05-08 17:32 26.46511 49.79187 91 ft 16 kts 164°
2026-05-08 17:33 26.46400 49.79222 91 ft 17 kts 164°
2026-05-08 17:33 26.46288 49.79253 91 ft 15 kts 169°
2026-05-08 17:33 26.46186 49.79283 90 ft 15 kts 164°
2026-05-08 17:33 26.46081 49.79317 91 ft 16 kts 163°
2026-05-08 17:34 26.45972 49.79351 92 ft 16 kts 165°
2026-05-08 17:34 26.45862 49.79385 91 ft 17 kts 164°
2026-05-08 17:34 26.45747 49.79423 90 ft 17 kts 162°
2026-05-08 17:34 26.45629 49.79460 92 ft 18 kts 164°
2026-05-08 17:35 26.45576 49.79477 89 ft 6 kts 164°
2026-05-08 17:35 26.45534 49.79490 92 ft 6 kts 165°
2026-05-08 17:35 26.45490 49.79486 93 ft 7 kts 199°
2026-05-08 17:35 26.45460 49.79450 93 ft 6 kts 244°
2026-05-08 17:36 26.45445 49.79401 91 ft 7 kts 253°
2026-05-08 17:36 26.45437 49.79371 92 ft 0 kts 253°
2026-05-08 17:38 26.45437 49.79370 89 ft 0 kts 253°
2026-05-08 17:39 26.45435 49.79364 89 ft 1 kts 253°
2026-05-08 17:39 26.45430 49.79345 93 ft 5 kts 253°
2026-05-08 17:39 26.45418 49.79292 91 ft 9 kts 255°
2026-05-08 17:39 26.45411 49.79220 94 ft 9 kts 288°
2026-05-08 17:40 26.45470 49.79184 89 ft 11 kts 342°
2026-05-08 17:40 26.45486 49.79179 90 ft 0 kts 345°
2026-05-08 17:42 26.45487 49.79179 93 ft 0 kts 345°
2026-05-08 17:42 26.45512 49.79171 90 ft 15 kts 345°
2026-05-08 17:42 26.45800 49.79082 91 ft 71 kts 344°
2026-05-08 17:42 26.46457 49.78879 94 ft 123 kts 344°
2026-05-08 17:43 26.47440 49.78574 97 ft 169 kts 344°
2026-05-08 17:43 26.48624 49.78200 637 ft 172 kts 347°
2026-05-08 17:43 26.49590 49.77910 1226 ft 170 kts 344°
2026-05-08 17:43 26.50743 49.77555 1710 ft 178 kts 342°
2026-05-08 17:44 26.51993 49.77163 1982 ft 199 kts 342°
2026-05-08 17:44 26.53362 49.76607 2185 ft 219 kts 331°
2026-05-08 17:44 26.54550 49.75489 2495 ft 230 kts 306°
2026-05-08 17:44 26.55075 49.73801 2956 ft 235 kts 274°
2026-05-08 17:45 26.54943 49.71984 3543 ft 233 kts 265°
2026-05-08 17:45 26.54680 49.70183 3975 ft 237 kts 263°
2026-05-08 17:45 26.54393 49.68347 4338 ft 243 kts 263°
2026-05-08 17:45 26.54103 49.66483 4760 ft 245 kts 263°
2026-05-08 17:46 26.53814 49.64596 5124 ft 248 kts 263°
2026-05-08 17:46 26.53529 49.62711 5440 ft 252 kts 263°
2026-05-08 17:46 26.53234 49.60759 5777 ft 256 kts 263°
2026-05-08 17:46 26.52936 49.58781 6123 ft 258 kts 263°
2026-05-08 17:47 26.52638 49.56786 6412 ft 265 kts 262°
2026-05-08 17:47 26.52329 49.54716 6702 ft 273 kts 262°
2026-05-08 17:47 26.52012 49.52617 7191 ft 275 kts 262°
2026-05-08 17:47 26.51801 49.51219 7539 ft 275 kts 261°
2026-05-08 17:48 26.51374 49.48391 8243 ft 278 kts 261°
2026-05-08 17:48 26.51057 49.46282 8745 ft 280 kts 261°
2026-05-08 17:48 26.50731 49.44126 9289 ft 282 kts 260°
2026-05-08 17:48 26.50404 49.41958 9826 ft 284 kts 260°
2026-05-08 17:49 26.50072 49.39763 10256 ft 291 kts 260°
2026-05-08 17:49 26.49726 49.37483 10453 ft 305 kts 260°
2026-05-08 17:49 26.49364 49.35093 10628 ft 319 kts 260°
2026-05-08 17:49 26.48951 49.32610 10791 ft 332 kts 255°
2026-05-08 17:50 26.48103 49.30150 10944 ft 345 kts 243°
2026-05-08 17:50 26.46937 49.27765 11096 ft 356 kts 240°
2026-05-08 17:50 26.45697 49.25363 11291 ft 366 kts 240°
2026-05-08 17:50 26.44412 49.22881 11621 ft 371 kts 240°
2026-05-08 17:51 26.43122 49.20379 12032 ft 373 kts 240°
2026-05-08 17:51 26.41827 49.17859 12457 ft 375 kts 240°
2026-05-08 17:51 26.40530 49.15330 12887 ft 377 kts 240°
2026-05-08 17:51 26.39229 49.12788 13322 ft 378 kts 240°
2026-05-08 17:52 26.37919 49.10228 13740 ft 380 kts 240°
2026-05-08 17:52 26.36603 49.07657 14123 ft 382 kts 240°
2026-05-08 17:52 26.33961 49.02500 14901 ft 384 kts 240°
2026-05-08 17:53 26.32650 48.99942 15268 ft 385 kts 240°
2026-05-08 17:53 26.31318 48.97345 15646 ft 387 kts 240°
2026-05-08 17:53 26.29978 48.94731 16006 ft 388 kts 240°
2026-05-08 17:53 26.28633 48.92112 16357 ft 390 kts 240°
2026-05-08 17:54 26.27280 48.89476 16694 ft 392 kts 240°
2026-05-08 17:54 26.25922 48.86834 17051 ft 393 kts 240°
2026-05-08 17:54 26.24561 48.84187 17371 ft 395 kts 240°
2026-05-08 17:54 26.23189 48.81520 17715 ft 396 kts 240°
2026-05-08 17:55 26.21833 48.78886 18038 ft 398 kts 240°
2026-05-08 17:55 26.20453 48.76207 18318 ft 400 kts 240°
2026-05-08 17:55 26.19111 48.73495 18596 ft 401 kts 244°
2026-05-08 17:55 26.18178 48.70563 18866 ft 403 kts 254°
2026-05-08 17:56 26.17584 48.67503 19126 ft 406 kts 258°
2026-05-08 17:56 26.17152 48.64380 19401 ft 407 kts 260°
2026-05-08 17:56 26.16797 48.61255 19680 ft 408 kts 261°
2026-05-08 17:56 26.16458 48.58118 19919 ft 409 kts 261°
2026-05-08 17:57 26.16107 48.54965 20149 ft 411 kts 261°
2026-05-08 17:57 26.15864 48.52876 20304 ft 411 kts 260°
2026-05-08 17:57 26.15482 48.49715 20529 ft 413 kts 260°
2026-05-08 17:57 26.15084 48.46542 20772 ft 414 kts 260°
2026-05-08 17:58 26.14542 48.42332 21097 ft 415 kts 259°
2026-05-08 17:58 26.14263 48.40183 21251 ft 416 kts 259°
2026-05-08 17:58 26.13846 48.36989 21482 ft 417 kts 259°
2026-05-08 17:58 26.13427 48.33788 21706 ft 419 kts 259°
2026-05-08 17:59 26.13005 48.30564 21925 ft 421 kts 259°
2026-05-08 17:59 26.12583 48.27335 22154 ft 422 kts 259°
2026-05-08 17:59 26.12159 48.24099 22357 ft 424 kts 259°
2026-05-08 17:59 26.11615 48.20920 22583 ft 423 kts 252°
2026-05-08 18:00 26.10658 48.17779 22767 ft 423 kts 244°
2026-05-08 18:00 26.07582 48.12285 23242 ft 422 kts 231°
2026-05-08 18:00 26.05767 48.09716 23473 ft 423 kts 230°
2026-05-08 18:01 26.03888 48.07192 23670 ft 424 kts 229°
2026-05-08 18:01 26.01982 48.04683 23881 ft 425 kts 229°
2026-05-08 18:01 26.00066 48.02167 24072 ft 425 kts 229°
2026-05-08 18:01 25.98162 47.99654 24324 ft 425 kts 229°
2026-05-08 18:02 25.96264 47.97131 24589 ft 425 kts 229°
2026-05-08 18:02 25.94373 47.94604 24784 ft 426 kts 229°
2026-05-08 18:02 25.92478 47.92064 24990 ft 427 kts 229°
2026-05-08 18:02 25.90585 47.89523 25196 ft 427 kts 230°
2026-05-08 18:03 25.88711 47.87005 25400 ft 428 kts 230°
2026-05-08 18:03 25.86805 47.84447 25618 ft 429 kts 230°
2026-05-08 18:03 25.84902 47.81894 25849 ft 429 kts 230°
2026-05-08 18:03 25.82992 47.79336 26061 ft 430 kts 230°
2026-05-08 18:04 25.81085 47.76781 26257 ft 431 kts 230°
2026-05-08 18:04 25.79162 47.74210 26366 ft 433 kts 230°
2026-05-08 18:04 25.77236 47.71634 26584 ft 434 kts 230°
2026-05-08 18:04 25.75304 47.69052 26822 ft 435 kts 230°
2026-05-08 18:05 25.73372 47.66471 27008 ft 435 kts 230°
2026-05-08 18:05 25.71433 47.63882 27219 ft 436 kts 230°
2026-05-08 18:05 25.69518 47.61326 27416 ft 437 kts 230°
2026-05-08 18:05 25.67537 47.58757 27640 ft 437 kts 227°
2026-05-08 18:06 25.65332 47.56442 27850 ft 438 kts 220°
2026-05-08 18:06 25.62836 47.54495 28049 ft 440 kts 212°
2026-05-08 18:06 25.60066 47.53021 28239 ft 444 kts 203°
2026-05-08 18:06 25.57065 47.52097 28434 ft 449 kts 193°
2026-05-08 18:07 25.53936 47.51787 28610 ft 456 kts 184°
2026-05-08 18:07 25.50796 47.52113 28771 ft 464 kts 174°
2026-05-08 18:07 25.47664 47.53105 28940 ft 472 kts 163°
2026-05-08 18:07 25.44708 47.54753 29191 ft 479 kts 154°
2026-05-08 18:08 25.41907 47.56784 29512 ft 481 kts 151°
2026-05-08 18:08 25.39193 47.58953 29799 ft 481 kts 149°
2026-05-08 18:08 25.36524 47.61178 30166 ft 478 kts 149°
2026-05-08 18:08 25.33881 47.63403 30499 ft 474 kts 149°
2026-05-08 18:09 25.31258 47.65594 30696 ft 473 kts 150°
2026-05-08 18:09 25.28651 47.67744 30895 ft 473 kts 150°
2026-05-08 18:09 25.26008 47.69902 31126 ft 472 kts 150°
2026-05-08 18:09 25.23363 47.72046 31379 ft 471 kts 151°
2026-05-08 18:10 25.20722 47.74177 31649 ft 469 kts 151°
2026-05-08 18:10 25.20374 47.74458 31687 ft 469 kts 151°
2026-05-08 18:10 25.18167 47.76235 31929 ft 468 kts 151°
2026-05-08 18:10 25.16050 47.77939 32164 ft 467 kts 151°
2026-05-08 18:11 25.13428 47.80048 32438 ft 466 kts 152°
2026-05-08 18:11 25.10805 47.82156 32630 ft 467 kts 152°
2026-05-08 18:11 25.08168 47.84275 32851 ft 467 kts 152°
2026-05-08 18:11 25.05580 47.86354 33155 ft 466 kts 152°
2026-05-08 18:12 25.02956 47.88464 33448 ft 465 kts 152°
2026-05-08 18:12 25.00341 47.90565 33730 ft 465 kts 152°
2026-05-08 18:12 24.97730 47.92663 34009 ft 464 kts 152°
2026-05-08 18:12 24.95124 47.94755 34224 ft 463 kts 152°
2026-05-08 18:13 24.92507 47.96852 34340 ft 466 kts 152°
2026-05-08 18:13 24.89878 47.98956 34503 ft 467 kts 152°
2026-05-08 18:13 24.87248 48.01062 34753 ft 466 kts 152°
2026-05-08 18:13 24.84626 48.03163 34973 ft 466 kts 152°
2026-05-08 18:14 24.82040 48.05233 35200 ft 466 kts 152°
2026-05-08 18:14 24.79419 48.07331 35432 ft 465 kts 152°
2026-05-08 18:14 24.76804 48.09423 35627 ft 464 kts 152°
2026-05-08 18:14 24.74182 48.11517 35727 ft 467 kts 152°
2026-05-08 18:15 24.71541 48.13624 35866 ft 468 kts 152°
2026-05-08 18:15 24.68897 48.15732 35944 ft 469 kts 152°
2026-05-08 18:15 24.63614 48.19947 35947 ft 469 kts 152°
2026-05-08 18:16 24.58372 48.24125 35915 ft 468 kts 152°
2026-05-08 18:16 24.53081 48.28334 35944 ft 470 kts 152°
2026-05-08 18:17 24.47779 48.32549 36109 ft 469 kts 152°
2026-05-08 18:17 24.45135 48.34651 36344 ft 468 kts 152°
2026-05-08 18:17 24.42499 48.36745 36572 ft 467 kts 152°
2026-05-08 18:18 24.39873 48.38830 36788 ft 466 kts 152°
2026-05-08 18:18 24.37245 48.40915 37012 ft 465 kts 152°
2026-05-08 18:18 24.34623 48.42993 37201 ft 464 kts 152°
2026-05-08 18:18 24.32035 48.45043 37420 ft 463 kts 152°
2026-05-08 18:19 24.29422 48.47113 37657 ft 462 kts 152°
2026-05-08 18:19 24.26816 48.49176 37849 ft 461 kts 152°
2026-05-08 18:19 24.21591 48.53302 37925 ft 466 kts 152°
2026-05-08 18:20 24.16284 48.57487 37918 ft 473 kts 152°
2026-05-08 18:20 24.10945 48.61697 37916 ft 478 kts 152°
2026-05-08 18:21 24.05547 48.65958 37912 ft 478 kts 151°
2026-05-08 18:21 24.00156 48.70211 37917 ft 476 kts 151°
2026-05-08 18:22 23.94792 48.74433 37911 ft 474 kts 151°
2026-05-08 18:22 23.89436 48.78641 37911 ft 474 kts 151°
2026-05-08 18:23 23.84078 48.82845 37908 ft 474 kts 151°
2026-05-08 18:23 23.78746 48.87027 37908 ft 473 kts 151°
2026-05-08 18:24 23.73395 48.91219 37905 ft 473 kts 151°
2026-05-08 18:24 23.68045 48.95406 37906 ft 473 kts 151°
2026-05-08 18:25 23.62697 48.99587 37881 ft 473 kts 150°
2026-05-08 18:25 23.57345 49.03766 37898 ft 473 kts 150°
2026-05-08 18:26 23.52026 49.07916 37898 ft 473 kts 150°
2026-05-08 18:26 23.46668 49.12092 37892 ft 472 kts 150°
2026-05-08 18:27 23.42230 49.15548 37883 ft 472 kts 150°
2026-05-08 18:27 23.35972 49.20415 37890 ft 473 kts 150°
2026-05-08 18:28 23.30640 49.24558 37890 ft 473 kts 150°
2026-05-08 18:28 23.25283 49.28717 37884 ft 473 kts 150°
2026-05-08 18:29 23.19919 49.32876 37887 ft 474 kts 150°
2026-05-08 18:29 23.14530 49.37051 37886 ft 475 kts 150°
2026-05-08 18:30 23.09142 49.41220 37889 ft 475 kts 150°
2026-05-08 18:30 23.03750 49.45390 37882 ft 475 kts 149°
2026-05-08 18:31 22.98384 49.49534 37884 ft 476 kts 149°
2026-05-08 18:31 22.92979 49.53704 37884 ft 476 kts 149°
2026-05-08 18:32 22.87925 49.58427 37885 ft 486 kts 136°
2026-05-08 18:32 22.84243 49.64649 37883 ft 499 kts 117°
2026-05-08 18:33 22.82351 49.71972 37885 ft 508 kts 106°
2026-05-08 18:33 22.81084 49.79532 37885 ft 510 kts 104°
2026-05-08 18:34 22.79890 49.87110 37885 ft 510 kts 104°
2026-05-08 18:34 22.78650 49.94625 37881 ft 509 kts 105°
2026-05-08 18:35 22.77360 50.02183 37890 ft 509 kts 105°
2026-05-08 18:35 22.76058 50.09723 37882 ft 509 kts 105°
2026-05-08 18:36 22.74753 50.17260 37884 ft 509 kts 104°
2026-05-08 18:36 22.73448 50.24793 37880 ft 509 kts 104°
2026-05-08 18:37 22.72139 50.32328 37873 ft 509 kts 104°
2026-05-08 18:37 22.70832 50.39832 37886 ft 509 kts 104°
2026-05-08 18:38 22.69513 50.47377 37872 ft 510 kts 104°
2026-05-08 18:38 22.68189 50.54932 37879 ft 510 kts 104°
2026-05-08 18:39 22.66871 50.62437 37876 ft 510 kts 104°
2026-05-08 18:39 22.65539 50.69996 37884 ft 511 kts 104°
2026-05-08 18:40 22.64203 50.77554 37867 ft 511 kts 104°
2026-05-08 18:40 22.62862 50.85118 37877 ft 511 kts 104°
2026-05-08 18:41 22.61519 50.92679 37881 ft 512 kts 104°
2026-05-08 18:41 22.60170 51.00246 37878 ft 512 kts 104°
2026-05-08 18:42 22.58817 51.07818 37868 ft 512 kts 104°
2026-05-08 18:42 22.57470 51.15330 37884 ft 512 kts 104°
2026-05-08 18:43 22.56112 51.22888 37875 ft 512 kts 104°
2026-05-08 18:43 22.54750 51.30445 37873 ft 511 kts 104°
2026-05-08 18:44 22.53383 51.38007 37876 ft 511 kts 104°
2026-05-08 18:44 22.52015 51.45551 37874 ft 511 kts 104°
2026-05-08 18:45 22.50654 51.53040 37868 ft 511 kts 104°
2026-05-08 18:45 22.49277 51.60594 37875 ft 511 kts 104°
2026-05-08 18:46 22.47895 51.68157 37866 ft 512 kts 104°
2026-05-08 18:46 22.46512 51.75705 37860 ft 512 kts 104°
2026-05-08 18:47 22.45360 51.81972 37868 ft 511 kts 104°
2026-05-08 18:47 22.43975 51.89496 37869 ft 511 kts 104°
2026-05-08 18:48 22.42585 51.97022 37870 ft 511 kts 104°
2026-05-08 18:48 22.41190 52.04559 37866 ft 511 kts 104°
2026-05-08 18:49 22.39791 52.12090 37870 ft 511 kts 104°
2026-05-08 18:49 22.38390 52.19613 37867 ft 511 kts 104°
2026-05-08 18:50 22.36992 52.27101 37869 ft 511 kts 104°
2026-05-08 18:50 22.35583 52.34628 37863 ft 511 kts 104°
2026-05-08 18:51 22.34173 52.42146 37863 ft 511 kts 104°
2026-05-08 18:51 22.32758 52.49666 37862 ft 511 kts 104°
2026-05-08 18:52 22.31339 52.57186 37862 ft 511 kts 104°
2026-05-08 18:52 22.29917 52.64700 37859 ft 511 kts 104°
2026-05-08 18:53 22.28487 52.72241 37855 ft 511 kts 104°
2026-05-08 18:53 22.27067 52.79708 37853 ft 511 kts 104°
2026-05-08 18:54 22.25631 52.87239 37840 ft 512 kts 104°
2026-05-08 18:54 22.24191 52.94774 37852 ft 512 kts 104°
2026-05-08 18:55 22.22023 53.06075 37845 ft 513 kts 104°
2026-05-08 18:56 22.20573 53.13608 37843 ft 513 kts 104°
2026-05-08 18:56 22.19119 53.21147 37848 ft 513 kts 104°
2026-05-08 18:57 22.17671 53.28635 37845 ft 513 kts 104°
2026-05-08 18:57 22.16208 53.36177 37843 ft 513 kts 104°
2026-05-08 18:58 22.14743 53.43715 37841 ft 513 kts 104°
2026-05-08 18:58 22.13276 53.51247 37841 ft 512 kts 105°
2026-05-08 18:59 22.11805 53.58770 37840 ft 512 kts 105°
2026-05-08 18:59 22.10334 53.66277 37839 ft 512 kts 105°
2026-05-08 19:00 22.08859 53.73787 37845 ft 512 kts 105°
2026-05-08 19:00 22.07380 53.81296 37843 ft 512 kts 105°
2026-05-08 19:01 22.05907 53.88757 37841 ft 512 kts 105°
2026-05-08 19:01 22.04423 53.96260 37836 ft 511 kts 105°
2026-05-08 19:02 22.02935 54.03756 37832 ft 511 kts 105°
2026-05-08 19:02 22.01449 54.11231 37840 ft 510 kts 105°
2026-05-08 19:03 21.99959 54.18704 37834 ft 509 kts 105°
2026-05-08 19:03 21.98469 54.26158 37830 ft 509 kts 105°
2026-05-08 19:04 21.97126 54.33647 37836 ft 511 kts 98°
2026-05-08 19:04 21.97406 54.41312 37829 ft 516 kts 79°
2026-05-08 19:05 21.99761 54.48602 37829 ft 520 kts 67°
2026-05-08 19:05 22.02873 54.55639 37828 ft 521 kts 65°
2026-05-08 19:06 22.06105 54.62642 37828 ft 521 kts 65°
2026-05-08 19:06 22.09291 54.69686 37829 ft 521 kts 65°
2026-05-08 19:07 22.12423 54.76735 37833 ft 521 kts 65°
2026-05-08 19:07 22.15512 54.83733 37829 ft 520 kts 66°
2026-05-08 19:08 22.18619 54.90784 37825 ft 520 kts 66°
2026-05-08 19:08 22.21730 54.97845 37826 ft 520 kts 66°
2026-05-08 19:09 22.24832 55.04896 37832 ft 519 kts 65°
2026-05-08 19:09 22.27911 55.11902 37815 ft 519 kts 65°
2026-05-08 19:10 22.31002 55.18944 37838 ft 519 kts 65°
2026-05-08 19:10 22.34088 55.25987 37835 ft 519 kts 65°
2026-05-08 19:11 22.37174 55.33039 37834 ft 518 kts 65°
2026-05-08 19:11 22.40253 55.40087 37836 ft 518 kts 65°
2026-05-08 19:12 22.43306 55.47085 37838 ft 518 kts 65°
2026-05-08 19:12 22.46386 55.54153 37845 ft 518 kts 65°
2026-05-08 19:13 22.49459 55.61217 37828 ft 519 kts 65°
2026-05-08 19:13 22.52530 55.68286 37847 ft 519 kts 65°
2026-05-08 19:14 22.55579 55.75315 37843 ft 519 kts 65°
2026-05-08 19:14 22.58644 55.82390 37830 ft 519 kts 66°
2026-05-08 19:15 22.61707 55.89473 37847 ft 519 kts 66°
2026-05-08 19:15 22.64765 55.96554 37832 ft 519 kts 66°
2026-05-08 19:16 22.67799 56.03588 37854 ft 519 kts 66°
2026-05-08 19:16 22.70854 56.10681 37840 ft 519 kts 66°
2026-05-08 19:17 22.73900 56.17765 37858 ft 519 kts 66°
2026-05-08 19:17 22.76948 56.24864 37855 ft 518 kts 66°
2026-05-08 19:18 22.79969 56.31910 37846 ft 518 kts 66°
2026-05-08 19:18 22.82723 56.39114 37860 ft 516 kts 76°
2026-05-08 19:19 22.84406 56.46671 37866 ft 515 kts 79°
2026-05-08 19:19 22.85861 56.54278 37866 ft 516 kts 80°
2026-05-08 19:20 22.87274 56.61904 37869 ft 515 kts 80°
2026-05-08 19:20 22.88689 56.69473 37874 ft 515 kts 80°
2026-05-08 19:21 22.90123 56.77090 37889 ft 515 kts 80°
2026-05-08 19:21 22.91556 56.84694 37892 ft 515 kts 79°
2026-05-08 19:22 22.92987 56.92307 37894 ft 513 kts 79°
2026-05-08 19:22 22.94409 56.99899 37905 ft 513 kts 80°
2026-05-08 19:23 22.95825 57.07482 37914 ft 513 kts 80°
2026-05-08 19:23 22.97228 57.15021 37920 ft 513 kts 80°
2026-05-08 19:24 22.98637 57.22610 37919 ft 513 kts 80°
2026-05-08 19:24 22.99944 57.30217 37921 ft 511 kts 86°
2026-05-08 19:25 23.00399 57.37913 37922 ft 510 kts 89°
2026-05-08 19:25 23.00656 57.45628 37913 ft 510 kts 90°
2026-05-08 19:26 23.00869 57.53287 37916 ft 510 kts 90°
2026-05-08 19:26 23.01090 57.60990 37903 ft 510 kts 90°
2026-05-08 19:27 23.01320 57.68708 37905 ft 511 kts 90°
2026-05-08 19:27 23.01548 57.76397 37890 ft 510 kts 90°
2026-05-08 19:28 23.01773 57.84087 37868 ft 509 kts 90°
2026-05-08 19:28 23.01868 57.91782 37869 ft 509 kts 91°
2026-05-08 19:29 23.01847 57.99419 37861 ft 509 kts 92°
2026-05-08 19:29 23.01823 58.07113 37852 ft 509 kts 92°
2026-05-08 19:30 23.01812 58.14811 37848 ft 509 kts 92°
2026-05-08 19:30 23.01804 58.22501 37845 ft 509 kts 92°
2026-05-08 19:31 23.01794 58.30185 37845 ft 509 kts 92°
2026-05-08 19:31 23.01789 58.37823 37833 ft 509 kts 91°
2026-05-08 19:32 23.01983 58.45508 37842 ft 509 kts 89°
2026-05-08 19:32 23.02278 58.53196 37833 ft 509 kts 89°
2026-05-08 19:33 23.02564 58.60891 37825 ft 509 kts 89°
2026-05-08 19:33 23.02824 58.68545 37824 ft 509 kts 90°
2026-05-08 19:34 23.03073 58.76239 37810 ft 510 kts 90°
2026-05-08 19:34 23.03316 58.83937 37794 ft 509 kts 90°
2026-05-08 19:35 23.03557 58.91626 37792 ft 509 kts 90°
2026-05-08 19:35 23.03794 58.99320 37796 ft 510 kts 90°
2026-05-08 19:36 23.04024 59.06965 37794 ft 510 kts 90°
2026-05-08 19:36 23.04249 59.14678 37796 ft 510 kts 90°
2026-05-08 19:37 23.04471 59.22381 37779 ft 510 kts 90°
2026-05-08 19:37 23.04690 59.30089 37766 ft 510 kts 90°
2026-05-08 19:38 23.04901 59.37752 37750 ft 510 kts 90°
2026-05-08 19:38 23.05025 59.44152 37750 ft 510 kts 90°
2026-05-08 19:39 23.05136 59.51855 37746 ft 510 kts 91°
2026-05-08 19:39 23.05243 59.59556 37749 ft 510 kts 91°
2026-05-08 19:40 23.05353 59.67253 37750 ft 509 kts 91°
2026-05-08 19:40 23.05463 59.74939 37753 ft 509 kts 91°
2026-05-08 19:41 23.05569 59.82588 37753 ft 509 kts 91°
2026-05-08 19:41 23.05671 59.90280 37760 ft 509 kts 91°
2026-05-08 19:42 23.05769 59.97970 37759 ft 509 kts 91°
2026-05-08 19:42 23.05863 60.05651 37763 ft 509 kts 91°
2026-05-08 19:43 23.05953 60.13336 37774 ft 509 kts 91°
2026-05-08 19:43 23.06039 60.20979 37771 ft 509 kts 91°
2026-05-08 19:44 23.06122 60.28660 37771 ft 509 kts 91°
2026-05-08 19:44 23.06201 60.36346 37773 ft 509 kts 91°
2026-05-08 19:45 23.06276 60.43991 37773 ft 509 kts 91°
2026-05-08 19:45 23.06347 60.51681 37771 ft 509 kts 91°
2026-05-08 19:46 23.06415 60.59371 37779 ft 509 kts 91°
2026-05-08 19:46 23.06512 60.70911 37777 ft 509 kts 91°
2026-05-08 19:47 23.06571 60.78551 37783 ft 509 kts 91°
2026-05-08 19:47 23.06628 60.86232 37782 ft 508 kts 91°
2026-05-08 19:48 23.06680 60.93918 37780 ft 508 kts 91°
2026-05-08 19:48 23.06729 61.01591 37780 ft 508 kts 91°
2026-05-08 19:49 23.06774 61.09282 37779 ft 508 kts 91°
2026-05-08 19:49 23.06816 61.16901 37780 ft 508 kts 91°
2026-05-08 19:50 23.06853 61.24573 37782 ft 508 kts 91°
2026-05-08 19:50 23.06887 61.32246 37783 ft 508 kts 91°
2026-05-08 19:51 23.06918 61.39910 37783 ft 508 kts 91°
2026-05-08 19:51 23.06944 61.47590 37782 ft 508 kts 91°
2026-05-08 19:52 23.06966 61.55265 37785 ft 508 kts 91°
2026-05-08 19:52 23.06984 61.62903 37788 ft 508 kts 91°
2026-05-08 19:53 23.06998 61.70585 37785 ft 508 kts 91°
2026-05-08 19:53 23.07008 61.78269 37785 ft 508 kts 91°
2026-05-08 19:54 23.07013 61.85938 37785 ft 508 kts 91°
2026-05-08 19:54 23.07014 61.93622 37789 ft 508 kts 91°
2026-05-08 19:55 23.07012 62.01262 37791 ft 508 kts 91°
2026-05-08 19:55 23.07006 62.08942 37790 ft 508 kts 91°
2026-05-08 19:56 23.06997 62.16619 37790 ft 508 kts 91°
2026-05-08 19:56 23.06984 62.24314 37792 ft 508 kts 91°
2026-05-08 19:57 23.06967 62.31945 37798 ft 508 kts 91°
2026-05-08 19:57 23.06946 62.39619 37791 ft 508 kts 91°
2026-05-08 19:58 23.06922 62.47304 37793 ft 508 kts 91°
2026-05-08 19:58 23.06894 62.54990 37797 ft 509 kts 91°
2026-05-08 19:59 23.06862 62.62668 37799 ft 508 kts 91°
2026-05-08 19:59 23.06827 62.70351 37799 ft 508 kts 91°
2026-05-08 20:00 23.06788 62.77980 37801 ft 508 kts 91°
2026-05-08 20:00 23.06745 62.85660 37802 ft 508 kts 91°
2026-05-08 20:01 23.06698 62.93343 37803 ft 508 kts 91°
2026-05-08 20:01 23.06648 63.01022 37803 ft 508 kts 91°
2026-05-08 20:02 23.06594 63.08698 37800 ft 509 kts 91°
2026-05-08 20:02 23.06536 63.16384 37810 ft 509 kts 91°
2026-05-08 20:03 23.06475 63.24076 37810 ft 510 kts 91°
2026-05-08 20:03 23.06409 63.31780 37810 ft 510 kts 91°
2026-05-08 20:04 23.06341 63.39431 37809 ft 509 kts 91°
2026-05-08 20:04 23.06268 63.47128 37809 ft 510 kts 91°
2026-05-08 20:05 23.06191 63.54846 37813 ft 511 kts 91°
2026-05-08 20:05 23.06111 63.62567 37812 ft 511 kts 91°
2026-05-08 20:06 23.06027 63.70279 37813 ft 511 kts 91°
2026-05-08 20:06 23.05939 63.77948 37816 ft 511 kts 91°
2026-05-08 20:07 23.05821 63.85657 37813 ft 511 kts 95°
2026-05-08 20:07 23.05174 63.93337 37816 ft 510 kts 96°
2026-05-08 20:08 23.04407 64.01002 37818 ft 510 kts 97°
2026-05-08 20:08 23.03609 64.08667 37819 ft 510 kts 97°
2026-05-08 20:09 23.02813 64.16332 37820 ft 511 kts 97°
2026-05-08 20:09 23.02024 64.23973 37823 ft 511 kts 97°
2026-05-08 20:10 23.01231 64.31631 37821 ft 511 kts 97°
2026-05-08 20:10 23.00433 64.39306 37827 ft 511 kts 97°
2026-05-08 20:11 22.99630 64.46988 37823 ft 511 kts 97°
2026-05-08 20:11 22.98825 64.54654 37823 ft 511 kts 97°
2026-05-08 20:12 22.98020 64.62277 37826 ft 511 kts 97°
2026-05-08 20:12 22.97206 64.69960 37827 ft 511 kts 97°
2026-05-08 20:13 22.96390 64.77618 37825 ft 511 kts 97°
2026-05-08 20:13 22.95846 64.85327 37826 ft 511 kts 91°
2026-05-08 20:14 22.95808 64.93049 37830 ft 512 kts 90°
2026-05-08 20:14 22.95862 65.00774 37830 ft 512 kts 89°
2026-05-08 20:15 22.95921 65.08454 37829 ft 512 kts 90°
2026-05-08 20:15 22.95966 65.16182 37830 ft 512 kts 90°
2026-05-08 20:16 22.96001 65.23908 37830 ft 512 kts 90°
2026-05-08 20:16 22.96030 65.31635 37834 ft 511 kts 90°
2026-05-08 20:17 22.96056 65.39371 37831 ft 512 kts 90°
2026-05-08 20:17 22.96078 65.47052 37854 ft 513 kts 90°
2026-05-08 20:18 22.96088 65.50929 38017 ft 513 kts 90°
2026-05-08 20:18 22.96097 65.54798 38187 ft 513 kts 90°
2026-05-08 20:18 22.96105 65.58673 38346 ft 514 kts 90°
2026-05-08 20:18 22.96112 65.62548 38503 ft 514 kts 90°
2026-05-08 20:19 22.96118 65.66111 38613 ft 514 kts 90°
2026-05-08 20:19 22.96122 65.68137 38667 ft 514 kts 90°
2026-05-08 20:19 22.96127 65.72006 38846 ft 513 kts 90°
2026-05-08 20:19 22.96131 65.75876 38843 ft 512 kts 90°
2026-05-08 20:20 22.96135 65.83611 38838 ft 512 kts 90°
2026-05-08 20:20 22.96136 65.91349 38840 ft 512 kts 90°
2026-05-08 20:21 22.96133 65.99035 38838 ft 513 kts 90°
2026-05-08 20:21 22.96127 66.06769 38837 ft 513 kts 90°
2026-05-08 20:22 22.96117 66.14509 38840 ft 513 kts 90°
2026-05-08 20:22 22.96105 66.20994 38839 ft 513 kts 90°
2026-05-08 20:23 22.96085 66.30002 38841 ft 513 kts 90°
2026-05-08 20:23 22.96064 66.37744 38840 ft 513 kts 90°
2026-05-08 20:24 22.96039 66.45489 38839 ft 513 kts 90°
2026-05-08 20:24 22.96010 66.53246 38841 ft 513 kts 90°
2026-05-08 20:25 22.95977 66.60951 38842 ft 513 kts 90°
2026-05-08 20:25 22.95941 66.68701 38841 ft 514 kts 90°
2026-05-08 20:26 22.95901 66.76466 38843 ft 514 kts 90°
2026-05-08 20:26 22.95857 66.84228 38843 ft 514 kts 90°
2026-05-08 20:27 22.95817 66.90682 38849 ft 514 kts 90°
2026-05-08 20:27 22.95776 66.98451 38841 ft 515 kts 90°
2026-05-08 20:28 22.95789 67.06244 38842 ft 515 kts 89°
2026-05-08 20:28 22.95814 67.14022 38842 ft 514 kts 89°
2026-05-08 20:29 22.95832 67.21727 38844 ft 514 kts 89°
2026-05-08 20:29 22.95841 67.29502 38841 ft 515 kts 89°
2026-05-08 20:30 22.95845 67.37283 38847 ft 515 kts 89°
2026-05-08 20:30 22.95845 67.45040 38844 ft 515 kts 89°
2026-05-08 20:31 22.95841 67.52836 38838 ft 515 kts 89°
2026-05-08 20:31 22.95834 67.60623 38843 ft 516 kts 89°
2026-05-08 20:32 22.95823 67.68372 38843 ft 516 kts 89°
2026-05-08 20:32 22.95808 67.76161 38842 ft 516 kts 89°
2026-05-08 20:33 22.95789 67.83952 38840 ft 516 kts 89°
2026-05-08 20:33 22.95779 67.91707 38840 ft 516 kts 89°
2026-05-08 20:34 22.95789 67.99497 38840 ft 516 kts 89°
2026-05-08 20:35 22.95800 68.11202 38837 ft 516 kts 89°
2026-05-08 20:35 22.95800 68.18940 38843 ft 516 kts 89°
2026-05-08 20:36 22.95794 68.26734 38840 ft 516 kts 89°
2026-05-08 20:36 22.95785 68.34532 38841 ft 516 kts 89°
2026-05-08 20:37 22.95622 68.42326 38843 ft 517 kts 92°
2026-05-08 20:37 22.95160 68.50108 38839 ft 517 kts 94°
2026-05-08 20:38 22.94653 68.57891 38850 ft 517 kts 93°
2026-05-08 20:38 22.94174 68.65685 38845 ft 518 kts 93°
2026-05-08 20:39 22.93713 68.73489 38842 ft 518 kts 93°
2026-05-08 20:39 22.93257 68.81234 38840 ft 518 kts 93°
2026-05-08 20:40 22.92793 68.89033 38848 ft 518 kts 92°
2026-05-08 20:40 22.92325 68.96826 38841 ft 518 kts 93°
2026-05-08 20:41 22.91852 69.04624 38841 ft 518 kts 93°
2026-05-08 20:41 22.91374 69.12434 38843 ft 518 kts 93°
2026-05-08 20:42 22.90897 69.20180 38852 ft 518 kts 93°
2026-05-08 20:42 22.90412 69.27989 38842 ft 518 kts 92°
2026-05-08 20:43 22.89923 69.35807 38837 ft 518 kts 93°
2026-05-08 20:43 22.89431 69.43603 38843 ft 518 kts 93°
2026-05-08 20:44 22.88938 69.51351 38846 ft 518 kts 93°
2026-05-08 20:44 22.88438 69.59154 38851 ft 519 kts 92°
2026-05-08 20:45 22.87933 69.66968 38849 ft 519 kts 93°
2026-05-08 20:45 22.87447 69.74766 38852 ft 518 kts 92°
2026-05-08 20:46 22.86998 69.82568 38859 ft 518 kts 92°
2026-05-08 20:46 22.86550 69.90383 38853 ft 519 kts 92°
2026-05-08 20:47 22.86096 69.98154 38863 ft 519 kts 92°
2026-05-08 20:47 22.85633 70.05966 38857 ft 519 kts 92°
2026-05-08 20:48 22.85165 70.13784 38843 ft 519 kts 92°
2026-05-08 20:48 22.84693 70.21607 38859 ft 519 kts 92°
2026-05-08 20:49 22.84217 70.29430 38847 ft 520 kts 92°